This is the latest recevied weather packets stored in our database for station/object DH8TOM-4. If no packets are shown the sender has not sent any weather packets the latest 10 day(s).
| Time | Temp. | Humidity | Pressure | Rain* | Wind** | Luminosity | Snow |
|---|---|---|---|---|---|---|---|
| 1777185247 | 10.56° C | 67% | 1022.9 hPa | - | - | - | - |
| 1777184946 | 10.56° C | 67% | 1022.9 hPa | - | - | - | - |
| 1777184645 | 10.56° C | 75% | 1022.8 hPa | - | - | - | - |
| 1777184344 | 9.44° C | 79% | 1022.7 hPa | - | - | - | - |
| 1777184043 | 9.44° C | 79% | 1022.7 hPa | - | - | - | - |
| 1777183742 | 9.44° C | 79% | 1022.7 hPa | - | - | - | - |
| 1777183440 | 8.33° C | 81% | 1022.5 hPa | - | - | - | - |
| 1777183140 | 8.33° C | 81% | 1022.5 hPa | - | - | - | - |
| 1777182839 | 7.22° C | 81% | 1022.4 hPa | - | - | - | - |
| 1777182538 | 6.11° C | 81% | 1022.3 hPa | - | - | - | - |
| 1777182237 | 6.11° C | 81% | 1022.3 hPa | - | - | - | - |
| 1777181936 | 6.11° C | 81% | 1022.3 hPa | - | - | - | - |
| 1777181634 | 5.56° C | 81% | 1022 hPa | - | - | - | - |
| 1777181334 | 5.56° C | 81% | 1022 hPa | - | - | - | - |
| 1777181033 | 5° C | 80% | 1021.9 hPa | - | - | - | - |
| 1777180732 | 5° C | 79% | 1021.8 hPa | - | - | - | - |
| 1777180431 | 5° C | 79% | 1021.8 hPa | - | - | - | - |
| 1777180130 | 5° C | 79% | 1021.8 hPa | - | - | - | - |
| 1777179829 | 5° C | 80% | 1021.5 hPa | - | - | - | - |
| 1777179528 | 5° C | 79% | 1021.3 hPa | - | - | - | - |
| 1777179227 | 5° C | 79% | 1021.3 hPa | - | - | - | - |
| 1777178926 | 5° C | 79% | 1021.3 hPa | - | - | - | - |
| 1777178625 | 4.44° C | 79% | 1021.2 hPa | - | - | - | - |
| 1777178324 | 4.44° C | 79% | 1021.2 hPa | - | - | - | - |
| 1777178023 | 4.44° C | 79% | 1021 hPa | - | - | - | - |
* Rain since midnight (hover to see other rain measurements)
** Current wind speed in m/s (hover to see current wind gust speed)